contact:dominique.lefevre@mio.osupytheas.fr, maurice.libes@osupytheas.fr, didier.mallarino@osupytheas.fr
Project:EMSO http://www.emso-fr.org/EMSO-France
Depth: 2436.0 m
Title:EMSO Ligure Ouest : Data MII capteur AQUADOPP
Date,Latitude,Longitude,X_East,Y_North,Z_Up,Amplitude_X,Amplitude_Y,Amplitude_Z,Batterie,SoundSpeed,Heading,Pitch,Roll,Pressure,TIS,Speed,Direction
, degrees North, degrees East, m.s-1, m.s-1,m.s-1, 1, 1, 1, Volt, m.s-1, degree, degree, degree, dbar, degree_C, m.s-1, degree
2020-07-07T00:04:03,42.805,6.029,0.019,-0.008,0.012,105.0,107.0,102.0,13.4,1505.3,323.6,-0.7,1.8,2470.351,13.31,0.02,112.8
2020-07-07T00:07:03,42.805,6.029,0.006,-0.013,-0.003,105.0,107.0,102.0,13.3,1505.3,325.1,-0.7,1.8,2470.344,13.31,0.014,155.2
2020-07-07T00:10:03,42.805,6.029,0.022,-0.005,-0.002,104.0,107.0,101.0,13.4,1505.3,328.4,-0.7,1.9,2470.362,13.32,0.022,102.8
2020-07-07T00:13:03,42.805,6.029,0.012,-0.002,-0.037,106.0,107.0,101.0,13.3,1505.3,327.8,-0.7,1.8,2470.376,13.32,0.012,99.5
2020-07-07T00:16:03,42.805,6.029,0.04,-0.007,-0.008,105.0,107.0,101.0,13.4,1505.3,327.1,-0.7,1.8,2470.362,13.32,0.04,99.9
2020-07-07T00:19:03,42.805,6.029,0.017,-0.023,-0.017,104.0,107.0,102.0,13.4,1505.3,326.7,-0.7,1.8,2470.34,13.32,0.028,143.5
2020-07-07T00:22:03,42.805,6.029,0.034,-0.01,-0.006,105.0,106.0,102.0,13.4,1505.3,326.6,-0.7,1.9,2470.311,13.32,0.035,106.4
2020-07-07T00:25:03,42.805,6.029,0.02,0.016,-0.005,105.0,107.0,101.0,13.4,1505.3,325.0,-0.7,1.8,2470.327,13.32,0.025,51.3
2020-07-07T00:28:03,42.805,6.029,0.038,-0.007,0.017,105.0,107.0,103.0,13.4,1505.3,326.1,-0.7,1.8,2470.321,13.32,0.038,100.4
2020-07-07T00:31:03,42.805,6.029,0.029,0.002,0.006,105.0,106.0,102.0,13.4,1505.3,324.1,-0.7,1.8,2470.331,13.32,0.029,86.1
2020-07-07T00:34:03,42.805,6.029,0.022,-0.022,-0.006,105.0,105.0,101.0,13.4,1505.3,325.4,-0.7,1.8,2470.291,13.32,0.031,135.0
2020-07-07T00:37:03,42.805,6.029,0.006,-0.023,-0.02,104.0,106.0,102.0,13.4,1505.3,328.3,-0.7,1.8,2470.288,13.33,0.023,165.4
2020-07-07T00:40:03,42.805,6.029,0.034,0.006,0.0,105.0,107.0,102.0,13.4,1505.3,325.8,-0.7,1.8,2470.305,13.33,0.034,80.0
2020-07-07T00:43:03,42.805,6.029,0.019,0.01,0.001,105.0,107.0,102.0,13.4,1505.3,324.4,-0.7,1.8,2470.338,13.33,0.021,62.2
2020-07-07T00:46:03,42.805,6.029,0.006,-0.009,-0.016,105.0,107.0,101.0,13.3,1505.3,325.6,-0.7,1.8,2470.282,13.33,0.01,146.3
2020-07-07T00:49:03,42.805,6.029,0.045,0.0,0.038,106.0,107.0,101.0,13.4,1505.3,325.3,-0.6,1.9,2470.299,13.33,0.045,90.0
2020-07-07T00:52:03,42.805,6.029,0.05,-0.005,0.016,104.0,108.0,103.0,13.4,1505.3,324.6,-0.7,1.8,2470.334,13.33,0.05,95.7
2020-07-07T00:55:03,42.805,6.029,0.044,-0.014,0.005,104.0,107.0,102.0,13.3,1505.3,325.6,-0.7,1.8,2470.331,13.33,0.046,107.6
2020-07-07T01:04:03,42.805,6.029,0.051,-0.008,0.02,106.0,108.0,102.0,13.4,1505.2,324.3,-0.7,1.8,2470.331,13.29,0.051,98.9
2020-07-07T01:07:04,42.805,6.029,0.034,-0.02,0.004,105.0,107.0,100.0,13.3,1505.3,325.9,-0.7,1.8,2470.359,13.31,0.039,120.5
2020-07-07T01:10:03,42.805,6.029,0.011,-0.002,0.034,104.0,107.0,103.0,13.4,1505.3,328.2,-0.7,1.8,2470.339,13.31,0.011,100.3
2020-07-07T01:13:03,42.805,6.029,0.04,-0.012,0.009,105.0,106.0,103.0,13.4,1505.3,323.6,-0.7,1.8,2470.305,13.32,0.041,106.7
2020-07-07T01:16:03,42.805,6.029,0.028,-0.013,0.001,104.0,107.0,101.0,13.4,1505.3,326.7,-0.7,1.8,2470.349,13.32,0.03,114.9
2020-07-07T01:19:03,42.805,6.029,0.02,-0.007,-0.019,105.0,107.0,102.0,13.4,1505.3,323.8,-0.7,1.8,2470.313,13.32,0.021,109.3
2020-07-07T01:22:03,42.805,6.029,0.034,-0.021,-0.023,104.0,107.0,101.0,13.4,1505.3,324.1,-0.7,1.8,2470.312,13.33,0.039,121.7
2020-07-07T01:25:03,42.805,6.029,0.024,-0.002,0.023,104.0,105.0,101.0,13.4,1505.3,326.6,-0.7,1.8,2470.294,13.33,0.024,94.8
2020-07-07T01:28:03,42.805,6.029,0.022,-0.024,0.021,106.0,106.0,102.0,13.4,1505.3,326.9,-0.7,1.8,2470.31,13.33,0.032,137.5
2020-07-07T01:31:03,42.805,6.029,0.048,-0.012,0.028,103.0,107.0,101.0,13.4,1505.3,326.8,-0.7,1.8,2470.344,13.33,0.049,104.0
2020-07-07T01:34:03,42.805,6.029,0.034,-0.009,0.022,104.0,107.0,101.0,13.4,1505.3,323.7,-0.7,1.8,2470.315,13.33,0.035,104.8
2020-07-07T01:37:03,42.805,6.029,0.02,0.011,0.005,104.0,105.0,102.0,13.4,1505.3,325.2,-0.7,1.8,2470.281,13.33,0.022,61.2
2020-07-07T01:40:03,42.805,6.029,0.018,0.001,0.011,105.0,106.0,101.0,13.3,1505.3,327.0,-0.7,1.8,2470.317,13.33,0.018,86.8
2020-07-07T01:43:03,42.805,6.029,0.023,-0.007,0.032,103.0,105.0,100.0,13.4,1505.3,327.2,-0.7,1.8,2470.284,13.33,0.024,106.9
2020-07-07T01:46:03,42.805,6.029,0.047,-0.035,-0.001,104.0,106.0,101.0,13.4,1505.3,326.1,-0.7,1.8,2470.266,13.33,0.058,126.7
2020-07-07T01:49:03,42.805,6.029,0.039,-0.014,0.033,104.0,106.0,101.0,13.3,1505.3,325.5,-0.7,1.8,2470.232,13.33,0.041,109.7
2020-07-07T01:55:03,42.805,6.029,0.026,0.002,0.0,104.0,106.0,100.0,13.4,1505.3,324.2,-0.7,1.8,2470.289,13.31,0.026,85.6
2020-07-07T01:58:03,42.805,6.029,0.028,-0.012,-0.004,103.0,106.0,101.0,13.4,1505.3,323.2,-0.7,1.8,2470.309,13.31,0.03,113.2
2020-07-07T02:04:03,42.805,6.029,-0.001,-0.021,-0.003,104.0,107.0,101.0,13.3,1505.2,325.9,-0.8,1.8,2470.333,13.3,0.021,182.7
2020-07-07T02:07:03,42.805,6.029,0.017,-0.006,-0.006,104.0,106.0,101.0,13.4,1505.3,327.6,-0.7,1.8,2470.259,13.31,0.018,109.4
2020-07-07T02:10:03,42.805,6.029,0.027,-0.023,-0.003,103.0,105.0,101.0,13.3,1505.3,327.3,-0.8,1.8,2470.297,13.32,0.035,130.4
2020-07-07T02:13:03,42.805,6.029,0.037,-0.007,0.018,103.0,106.0,101.0,13.4,1505.3,325.4,-0.7,1.9,2470.286,13.32,0.037,100.7
2020-07-07T02:16:03,42.805,6.029,0.03,0.004,-0.019,104.0,106.0,100.0,13.3,1505.3,324.5,-0.7,1.8,2470.31,13.32,0.03,82.4
2020-07-07T02:19:03,42.805,6.029,0.03,-0.013,0.023,105.0,105.0,100.0,13.3,1505.3,324.0,-0.7,1.8,2470.254,13.33,0.032,113.4
2020-07-07T02:22:03,42.805,6.029,0.043,-0.009,0.014,104.0,106.0,102.0,13.3,1505.3,323.9,-0.7,1.8,2470.272,13.33,0.043,101.8
2020-07-07T02:25:03,42.805,6.029,0.022,-0.018,0.038,104.0,107.0,101.0,13.4,1505.3,325.9,-0.7,1.8,2470.261,13.33,0.028,129.3
2020-07-07T02:28:03,42.805,6.029,0.015,-0.005,0.009,105.0,106.0,101.0,13.4,1505.3,328.1,-0.7,1.8,2470.251,13.33,0.015,108.4
2020-07-07T02:31:03,42.805,6.029,0.027,-0.006,0.003,105.0,106.0,101.0,13.4,1505.3,323.5,-0.7,1.8,2470.274,13.33,0.027,102.5
2020-07-07T02:34:03,42.805,6.029,-0.012,-0.026,-0.064,104.0,106.0,101.0,13.3,1505.3,323.8,-0.7,1.8,2470.258,13.33,0.028,204.8
2020-07-07T02:37:03,42.805,6.029,0.002,-0.009,-0.018,104.0,107.0,100.0,13.3,1505.3,328.1,-0.7,1.8,2470.254,13.33,0.009,167.5
2020-07-07T02:40:03,42.805,6.029,-0.001,-0.024,-0.024,103.0,107.0,101.0,13.3,1505.3,324.3,-0.7,1.8,2470.261,13.33,0.024,182.4
2020-07-07T02:43:03,42.805,6.029,-0.02,-0.011,-0.016,104.0,106.0,101.0,13.4,1505.3,324.7,-0.7,1.8,2470.233,13.33,0.022,241.2
2020-07-07T02:46:03,42.805,6.029,-0.006,-0.023,-0.025,104.0,106.0,103.0,13.4,1505.3,328.0,-0.7,1.8,2470.238,13.33,0.023,194.6
2020-07-07T02:49:03,42.805,6.029,0.043,-0.018,0.01,106.0,106.0,101.0,13.4,1505.3,328.0,-0.7,1.9,2470.226,13.33,0.046,112.7
2020-07-07T02:52:03,42.805,6.029,0.012,0.002,-0.007,105.0,106.0,102.0,13.4,1505.3,326.2,-0.7,1.8,2470.251,13.33,0.012,80.5
2020-07-07T02:55:03,42.805,6.029,-0.008,-0.023,0.001,104.0,106.0,101.0,13.4,1505.3,323.3,-0.7,1.8,2470.249,13.33,0.024,199.2
2020-07-07T02:58:03,42.805,6.029,-0.007,-0.025,-0.05,103.0,105.0,101.0,13.3,1505.3,324.5,-0.7,1.8,2470.214,13.33,0.025,195.6
2020-07-07T03:04:03,42.805,6.029,0.006,-0.016,-0.019,105.0,106.0,101.0,13.4,1505.3,326.1,-0.8,1.8,2470.268,13.31,0.017,159.4
2020-07-07T03:07:03,42.805,6.029,-0.024,-0.037,-0.035,104.0,105.0,100.0,13.3,1505.3,324.6,-0.8,1.8,2470.271,13.32,0.044,213.0
2020-07-07T03:10:03,42.805,6.029,0.011,-0.01,-0.002,103.0,105.0,101.0,13.4,1505.3,324.2,-0.7,1.8,2470.219,13.32,0.014,132.3
2020-07-07T03:13:03,42.805,6.029,0.016,-0.019,-0.017,103.0,105.0,102.0,13.4,1505.3,324.7,-0.7,1.8,2470.238,13.33,0.024,139.9
2020-07-07T03:16:03,42.805,6.029,-0.042,-0.036,-0.073,106.0,106.0,101.0,13.4,1505.3,327.5,-0.7,1.8,2470.25,13.33,0.055,229.4
2020-07-07T03:19:03,42.805,6.029,-0.001,-0.028,-0.039,103.0,105.0,101.0,13.3,1505.3,323.8,-0.7,1.8,2470.219,13.33,0.028,182.0
2020-07-07T03:25:03,42.805,6.029,-0.015,-0.016,-0.035,103.0,105.0,101.0,13.4,1505.3,327.9,-0.7,1.8,2470.272,13.31,0.021,223.1
2020-07-07T03:28:03,42.805,6.029,-0.004,-0.022,-0.022,103.0,107.0,101.0,13.4,1505.3,326.9,-0.7,1.8,2470.293,13.32,0.022,190.3
2020-07-07T03:31:03,42.805,6.029,-0.012,-0.013,-0.045,103.0,105.0,101.0,13.4,1505.3,326.8,-0.7,1.8,2470.228,13.32,0.017,222.7
2020-07-07T03:34:03,42.805,6.029,0.0,-0.026,0.002,106.0,106.0,102.0,13.4,1505.3,323.7,-0.7,1.8,2470.243,13.33,0.026,180.0
2020-07-07T03:37:03,42.805,6.029,-0.006,-0.001,-0.028,106.0,106.0,101.0,13.3,1505.3,325.4,-0.7,1.8,2470.222,13.33,0.006,260.5
2020-07-07T03:40:03,42.805,6.029,0.032,-0.023,-0.03,102.0,106.0,101.0,13.4,1505.3,325.2,-0.7,1.8,2470.247,13.33,0.039,125.7
2020-07-07T03:43:03,42.805,6.029,-0.001,-0.015,-0.017,105.0,106.0,101.0,13.3,1505.3,325.4,-0.7,1.9,2470.269,13.33,0.015,183.8
2020-07-07T03:46:03,42.805,6.029,0.002,-0.024,-0.007,104.0,108.0,101.0,13.4,1505.3,324.0,-0.7,1.8,2470.258,13.33,0.024,175.2
2020-07-07T03:49:03,42.805,6.029,-0.002,-0.009,0.009,105.0,107.0,101.0,13.4,1505.3,324.7,-0.7,1.8,2470.233,13.33,0.009,192.5
2020-07-07T03:52:03,42.805,6.029,0.005,-0.004,0.049,103.0,106.0,102.0,13.4,1505.3,326.4,-0.7,1.8,2470.236,13.33,0.006,128.7
2020-07-07T03:55:03,42.805,6.029,0.019,-0.015,0.006,105.0,108.0,101.0,13.4,1505.3,324.3,-0.7,1.8,2470.228,13.33,0.024,128.3
2020-07-07T03:58:03,42.805,6.029,0.022,-0.022,0.027,104.0,109.0,101.0,13.3,1505.3,326.1,-0.7,1.8,2470.245,13.33,0.031,135.0
2020-07-07T04:04:03,42.805,6.029,0.019,-0.017,0.017,104.0,109.0,102.0,13.4,1505.3,328.2,-0.7,1.8,2470.267,13.31,0.025,131.8
2020-07-07T04:07:03,42.805,6.029,0.053,-0.006,0.049,105.0,109.0,101.0,13.4,1505.3,325.5,-0.7,1.8,2470.279,13.32,0.053,96.5
2020-07-07T04:10:03,42.805,6.029,0.004,-0.01,0.003,105.0,108.0,102.0,13.4,1505.3,326.1,-0.8,1.8,2470.232,13.33,0.01,158.2
2020-07-07T04:13:03,42.805,6.029,-0.02,-0.019,-0.053,105.0,110.0,102.0,13.4,1505.3,326.6,-0.7,1.8,2470.286,13.33,0.027,226.5
2020-07-07T04:16:03,42.805,6.029,-0.029,-0.031,-0.014,105.0,109.0,101.0,13.4,1505.3,325.0,-0.7,1.8,2470.253,13.33,0.042,223.1
2020-07-07T04:19:03,42.805,6.029,-0.039,-0.016,-0.063,105.0,108.0,101.0,13.4,1505.3,323.8,-0.7,1.8,2470.218,13.33,0.042,247.7
2020-07-07T04:22:03,42.805,6.029,-0.047,-0.018,-0.035,105.0,108.0,102.0,13.4,1505.3,323.1,-0.7,1.8,2470.253,13.33,0.05,249.0
2020-07-07T04:25:03,42.805,6.029,-0.062,-0.021,-0.037,105.0,108.0,102.0,13.3,1505.3,324.7,-0.7,1.8,2470.23,13.33,0.065,251.3
2020-07-07T04:28:03,42.805,6.029,-0.034,-0.019,-0.076,104.0,108.0,101.0,13.3,1505.4,323.0,-0.7,1.8,2470.227,13.34,0.038,240.8
2020-07-07T04:31:03,42.805,6.029,-0.02,-0.011,-0.001,104.0,106.0,101.0,13.4,1505.4,326.3,-0.7,1.8,2470.183,13.34,0.022,241.2
2020-07-07T04:34:03,42.805,6.029,0.012,-0.009,-0.018,105.0,106.0,102.0,13.3,1505.4,328.7,-0.7,1.8,2470.259,13.34,0.015,126.9
2020-07-07T04:37:03,42.805,6.029,0.006,0.0,-0.01,103.0,105.0,102.0,13.4,1505.4,327.1,-0.7,1.8,2470.226,13.34,0.006,90.0
2020-07-07T04:40:03,42.805,6.029,0.008,0.001,0.01,103.0,106.0,101.0,13.3,1505.4,328.5,-0.7,1.8,2470.208,13.34,0.008,82.9
2020-07-07T04:43:03,42.805,6.029,-0.007,-0.007,0.01,103.0,107.0,101.0,13.3,1505.4,326.5,-0.7,1.8,2470.236,13.34,0.009,225.0
2020-07-07T04:46:03,42.805,6.029,0.016,-0.01,-0.015,105.0,106.0,102.0,13.3,1505.4,327.0,-0.7,1.8,2470.213,13.34,0.018,122.0
2020-07-07T04:49:03,42.805,6.029,0.01,-0.005,-0.016,105.0,107.0,103.0,13.4,1505.4,325.4,-0.7,1.8,2470.241,13.34,0.011,116.6
2020-07-07T04:52:03,42.805,6.029,0.02,-0.005,0.029,104.0,106.0,104.0,13.3,1505.4,328.2,-0.7,1.9,2470.249,13.34,0.02,104.0
2020-07-07T04:55:03,42.805,6.029,0.021,-0.001,0.008,106.0,106.0,100.0,13.3,1505.4,324.7,-0.7,1.8,2470.268,13.34,0.021,92.7
2020-07-07T04:58:03,42.805,6.029,0.028,-0.006,0.026,105.0,105.0,103.0,13.4,1505.4,326.3,-0.7,1.8,2470.231,13.34,0.028,102.1
2020-07-07T05:04:03,42.805,6.029,0.0,-0.001,0.026,104.0,106.0,101.0,13.4,1505.3,323.7,-0.7,1.8,2470.292,13.32,0.001,180.0
2020-07-07T05:07:03,42.805,6.029,0.015,-0.007,0.026,105.0,106.0,101.0,13.4,1505.3,326.3,-0.7,1.8,2470.262,13.32,0.016,115.0
2020-07-07T05:10:03,42.805,6.029,0.014,-0.008,0.049,105.0,107.0,101.0,13.4,1505.3,326.6,-0.7,1.8,2470.282,13.33,0.016,119.7
2020-07-07T05:13:03,42.805,6.029,0.009,-0.002,0.031,105.0,106.0,101.0,13.4,1505.3,327.5,-0.7,1.8,2470.258,13.33,0.009,102.5
2020-07-07T05:16:03,42.805,6.029,0.024,0.001,0.024,104.0,107.0,101.0,13.4,1505.3,324.2,-0.7,1.8,2470.31,13.33,0.024,87.6
2020-07-07T05:19:03,42.805,6.029,-0.005,-0.021,0.012,105.0,107.0,102.0,13.4,1505.3,326.7,-0.7,1.8,2470.291,13.33,0.021,193.4
2020-07-07T05:22:03,42.805,6.029,0.003,-0.014,0.025,105.0,105.0,101.0,13.3,1505.3,324.2,-0.7,1.8,2470.286,13.33,0.014,167.9
2020-07-07T05:25:03,42.805,6.029,0.022,-0.019,-0.028,104.0,106.0,101.0,13.3,1505.4,327.7,-0.7,1.8,2470.26,13.34,0.029,130.8
2020-07-07T05:28:03,42.805,6.029,0.005,0.008,-0.014,104.0,107.0,102.0,13.3,1505.4,325.0,-0.7,1.8,2470.302,13.34,0.009,32.0
2020-07-07T05:31:03,42.805,6.029,0.004,0.0,-0.012,105.0,107.0,101.0,13.3,1505.4,323.1,-0.7,1.8,2470.338,13.34,0.004,90.0
2020-07-07T05:34:03,42.805,6.029,0.03,-0.012,-0.027,103.0,107.0,102.0,13.4,1505.4,327.8,-0.7,1.8,2470.277,13.34,0.032,111.8
2020-07-07T05:37:03,42.805,6.029,0.013,0.0,0.032,105.0,108.0,102.0,13.3,1505.4,323.7,-0.7,1.8,2470.288,13.34,0.013,90.0
2020-07-07T05:40:03,42.805,6.029,0.051,-0.006,0.04,104.0,106.0,101.0,13.3,1505.4,324.7,-0.7,1.8,2470.308,13.34,0.051,96.7
2020-07-07T05:43:03,42.805,6.029,0.024,-0.005,0.017,105.0,107.0,100.0,13.4,1505.4,328.2,-0.7,1.8,2470.281,13.34,0.024,101.8
2020-07-07T05:46:03,42.805,6.029,0.016,-0.024,0.029,105.0,107.0,100.0,13.4,1505.4,325.0,-0.7,1.9,2470.254,13.34,0.028,146.3
2020-07-07T05:49:03,42.805,6.029,0.038,0.006,0.003,104.0,106.0,103.0,13.4,1505.4,322.7,-0.7,1.8,2470.287,13.35,0.038,81.0
2020-07-07T05:52:03,42.805,6.029,0.054,-0.003,0.027,103.0,109.0,102.0,13.4,1505.4,325.3,-0.7,1.8,2470.295,13.35,0.054,93.2
2020-07-07T05:55:03,42.805,6.029,0.042,-0.005,0.019,104.0,107.0,101.0,13.3,1505.4,327.7,-0.7,1.8,2470.336,13.35,0.042,96.8
2020-07-07T05:58:03,42.805,6.029,0.019,0.006,0.068,105.0,107.0,100.0,13.4,1505.4,326.4,-0.7,1.8,2470.288,13.35,0.019,72.5
2020-07-07T06:04:03,42.805,6.029,0.033,0.008,0.019,105.0,107.0,101.0,13.4,1505.3,325.8,-0.7,1.8,2470.324,13.33,0.033,76.4
2020-07-07T06:07:03,42.805,6.029,0.038,-0.008,0.023,105.0,107.0,101.0,13.4,1505.3,326.9,-0.7,1.8,2470.309,13.33,0.038,101.9
2020-07-07T06:10:03,42.805,6.029,0.015,-0.002,0.012,104.0,108.0,101.0,13.4,1505.4,326.4,-0.7,1.8,2470.294,13.34,0.015,97.6
2020-07-07T06:13:03,42.805,6.029,0.017,-0.009,0.005,105.0,109.0,101.0,13.3,1505.4,322.9,-0.7,1.8,2470.348,13.34,0.019,117.9
2020-07-07T06:16:03,42.805,6.029,0.034,-0.003,0.046,105.0,107.0,101.0,13.4,1505.4,323.2,-0.8,1.8,2470.302,13.34,0.034,95.0
2020-07-07T06:19:03,42.805,6.029,0.008,-0.004,0.014,106.0,107.0,101.0,13.4,1505.4,326.3,-0.7,1.8,2470.324,13.34,0.008,116.6
2020-07-07T06:22:03,42.805,6.029,0.021,-0.003,0.02,105.0,107.0,100.0,13.4,1505.4,325.2,-0.7,1.8,2470.338,13.34,0.021,98.1
2020-07-07T06:25:03,42.805,6.029,0.028,-0.003,0.004,104.0,110.0,103.0,13.4,1505.4,327.9,-0.7,1.8,2470.3,13.34,0.028,96.1
2020-07-07T06:28:03,42.805,6.029,0.008,0.008,0.031,103.0,108.0,101.0,13.3,1505.4,324.8,-0.7,1.8,2470.313,13.34,0.011,45.0
2020-07-07T06:31:03,42.805,6.029,0.021,0.009,0.022,105.0,107.0,100.0,13.3,1505.4,326.8,-0.7,1.8,2470.302,13.34,0.022,66.8
2020-07-07T06:34:03,42.805,6.029,0.022,-0.001,0.013,103.0,107.0,103.0,13.4,1505.4,323.2,-0.7,1.8,2470.312,13.34,0.022,92.6
2020-07-07T06:37:03,42.805,6.029,0.02,-0.003,0.04,106.0,108.0,100.0,13.4,1505.4,325.3,-0.7,1.8,2470.292,13.34,0.02,98.5
2020-07-07T06:40:03,42.805,6.029,0.043,-0.004,-0.006,103.0,110.0,101.0,13.3,1505.4,325.5,-0.7,1.8,2470.337,13.34,0.043,95.3
2020-07-07T06:43:03,42.805,6.029,0.038,-0.003,0.014,104.0,107.0,103.0,13.4,1505.4,327.6,-0.7,1.8,2470.303,13.34,0.038,94.5
2020-07-07T06:46:03,42.805,6.029,0.027,-0.001,0.047,104.0,108.0,100.0,13.3,1505.4,328.3,-0.7,1.9,2470.3,13.35,0.027,92.1
2020-07-07T06:49:03,42.805,6.029,0.059,-0.013,0.035,104.0,107.0,99.0,13.4,1505.4,328.2,-0.7,1.8,2470.346,13.35,0.06,102.4
2020-07-07T06:52:03,42.805,6.029,0.038,-0.004,0.051,105.0,109.0,101.0,13.4,1505.4,327.7,-0.7,1.8,2470.327,13.35,0.038,96.0
2020-07-07T06:55:03,42.805,6.029,0.013,-0.003,0.033,104.0,107.0,101.0,13.4,1505.4,323.3,-0.7,1.9,2470.288,13.35,0.013,103.0
2020-07-07T06:58:03,42.805,6.029,0.031,0.017,0.039,105.0,108.0,102.0,13.4,1505.4,326.5,-0.7,1.9,2470.345,13.35,0.035,61.3
2020-07-07T07:04:03,42.805,6.029,0.038,0.008,0.019,105.0,107.0,100.0,13.4,1505.3,326.8,-0.7,1.8,2470.359,13.33,0.038,78.1
2020-07-07T07:07:03,42.805,6.029,0.034,0.017,0.06,104.0,108.0,102.0,13.4,1505.4,328.4,-0.7,1.9,2470.334,13.34,0.038,63.4
2020-07-07T07:10:03,42.805,6.029,0.034,-0.007,0.031,104.0,107.0,103.0,13.4,1505.4,327.8,-0.7,1.8,2470.351,13.34,0.034,101.6
2020-07-07T07:13:03,42.805,6.029,0.025,-0.005,0.043,106.0,107.0,100.0,13.4,1505.4,325.3,-0.7,1.8,2470.35,13.34,0.025,101.3
2020-07-07T07:16:03,42.805,6.029,0.026,-0.005,0.037,103.0,108.0,101.0,13.4,1505.4,325.6,-0.7,1.8,2470.321,13.34,0.026,100.9
2020-07-07T07:19:03,42.805,6.029,0.014,0.004,0.03,106.0,106.0,102.0,13.3,1505.4,326.9,-0.7,1.8,2470.306,13.35,0.014,74.1
2020-07-07T07:22:03,42.805,6.029,0.023,-0.013,0.005,102.0,107.0,102.0,13.4,1505.4,327.0,-0.7,1.8,2470.355,13.35,0.026,119.5
2020-07-07T07:25:03,42.805,6.029,0.033,0.003,0.028,105.0,108.0,102.0,13.4,1505.4,323.8,-0.7,1.8,2470.292,13.35,0.033,84.8
2020-07-07T07:28:03,42.805,6.029,0.027,0.015,0.033,104.0,108.0,101.0,13.3,1505.4,328.2,-0.7,1.9,2470.373,13.35,0.03,60.9
2020-07-07T07:31:03,42.805,6.029,0.052,0.019,0.03,104.0,107.0,101.0,13.3,1505.4,325.6,-0.7,1.9,2470.353,13.35,0.055,69.9
2020-07-07T07:37:03,42.805,6.029,0.038,0.009,0.082,102.0,107.0,101.0,13.4,1505.3,327.5,-0.8,1.8,2470.407,13.33,0.039,76.7
2020-07-07T07:40:03,42.805,6.029,0.019,0.013,0.026,103.0,110.0,101.0,13.4,1505.4,326.1,-0.7,1.8,2470.348,13.34,0.023,55.6
2020-07-07T07:43:03,42.805,6.029,0.049,0.0,0.04,105.0,107.0,101.0,13.4,1505.4,327.8,-0.7,1.8,2470.397,13.34,0.049,90.0
2020-07-07T07:46:03,42.805,6.029,0.049,0.005,0.014,104.0,107.0,100.0,13.3,1505.4,325.5,-0.7,1.8,2470.302,13.35,0.049,84.2
2020-07-07T07:49:03,42.805,6.029,0.042,-0.031,0.046,105.0,107.0,100.0,13.4,1505.4,323.3,-0.7,1.8,2470.332,13.35,0.052,126.4
2020-07-07T07:52:03,42.805,6.029,0.042,0.0,0.03,104.0,106.0,100.0,13.3,1505.4,327.9,-0.7,1.8,2470.31,13.35,0.042,90.0
2020-07-07T07:55:03,42.805,6.029,0.058,0.023,-0.006,105.0,107.0,100.0,13.4,1505.4,326.8,-0.7,1.8,2470.343,13.35,0.062,68.4
2020-07-07T07:58:03,42.805,6.029,0.034,0.005,0.042,103.0,107.0,100.0,13.4,1505.4,327.9,-0.7,1.8,2470.348,13.35,0.034,81.6
2020-07-07T08:04:03,42.805,6.029,0.02,-0.007,0.021,105.0,108.0,102.0,13.3,1505.3,328.4,-0.7,1.8,2470.383,13.33,0.021,109.3
2020-07-07T08:07:03,42.805,6.029,0.029,0.019,0.021,104.0,107.0,102.0,13.4,1505.3,325.5,-0.7,1.8,2470.35,13.33,0.034,56.8
2020-07-07T08:10:03,42.805,6.029,-0.002,0.004,0.02,103.0,109.0,101.0,13.4,1505.4,327.9,-0.7,1.8,2470.345,13.34,0.004,333.4
2020-07-07T08:13:03,42.805,6.029,0.056,-0.015,0.05,106.0,106.0,101.0,13.3,1505.4,325.4,-0.7,1.8,2470.367,13.34,0.057,105.0
2020-07-07T08:16:03,42.805,6.029,0.043,-0.007,0.055,103.0,107.0,101.0,13.4,1505.4,325.9,-0.7,1.8,2470.394,13.34,0.043,99.2
2020-07-07T08:19:03,42.805,6.029,0.028,0.007,0.048,102.0,106.0,102.0,13.3,1505.4,325.7,-0.7,1.8,2470.375,13.34,0.028,76.0
2020-07-07T08:22:03,42.805,6.029,0.036,-0.004,0.037,105.0,108.0,102.0,13.4,1505.4,325.0,-0.7,1.8,2470.353,13.34,0.036,96.3
2020-07-07T08:25:03,42.805,6.029,0.014,0.0,0.022,105.0,107.0,101.0,13.4,1505.4,323.5,-0.7,1.8,2470.356,13.34,0.014,90.0
2020-07-07T08:28:03,42.805,6.029,0.034,0.008,0.036,103.0,108.0,102.0,13.4,1505.4,323.6,-0.7,1.8,2470.356,13.34,0.034,76.8
2020-07-07T08:31:03,42.805,6.029,0.032,-0.002,0.024,104.0,108.0,101.0,13.4,1505.4,326.7,-0.7,1.8,2470.338,13.35,0.032,93.6
2020-07-07T08:34:03,42.805,6.029,0.016,0.017,0.016,104.0,109.0,102.0,13.4,1505.4,327.3,-0.7,1.8,2470.346,13.35,0.023,43.3
2020-07-07T08:37:03,42.805,6.029,0.017,0.008,0.002,103.0,107.0,101.0,13.4,1505.4,327.2,-0.7,1.8,2470.387,13.35,0.018,64.8
2020-07-07T08:40:03,42.805,6.029,0.026,-0.004,0.029,103.0,108.0,102.0,13.4,1505.4,324.6,-0.7,1.8,2470.361,13.35,0.026,98.7
2020-07-07T08:43:03,42.805,6.029,0.001,0.008,0.0,103.0,107.0,101.0,13.3,1505.4,325.9,-0.7,1.8,2470.354,13.35,0.008,7.1
2020-07-07T08:46:03,42.805,6.029,0.009,0.005,-0.007,104.0,107.0,100.0,13.4,1505.4,324.5,-0.7,1.8,2470.354,13.35,0.01,60.9
2020-07-07T08:49:03,42.805,6.029,0.006,-0.003,-0.016,104.0,107.0,102.0,13.4,1505.4,326.5,-0.7,1.8,2470.336,13.35,0.006,116.6
2020-07-07T08:52:03,42.805,6.029,0.0,0.012,0.056,103.0,107.0,101.0,13.3,1505.4,327.9,-0.7,1.8,2470.346,13.35,0.012,0.0
2020-07-07T08:55:03,42.805,6.029,0.035,-0.016,0.004,106.0,106.0,101.0,13.3,1505.4,323.5,-0.7,1.8,2470.333,13.35,0.038,114.6
2020-07-07T08:58:03,42.805,6.029,0.014,0.017,-0.017,103.0,108.0,102.0,13.3,1505.4,324.5,-0.7,1.8,2470.325,13.35,0.022,39.5
2020-07-07T09:04:03,42.805,6.029,-0.007,0.017,-0.02,104.0,108.0,102.0,13.4,1505.3,325.3,-0.7,1.9,2470.402,13.33,0.018,337.6
2020-07-07T09:07:03,42.805,6.029,0.018,0.009,0.013,105.0,108.0,102.0,13.4,1505.4,327.3,-0.7,1.8,2470.374,13.34,0.02,63.4
2020-07-07T09:10:03,42.805,6.029,0.014,0.032,0.012,103.0,107.0,102.0,13.3,1505.4,323.6,-0.7,1.9,2470.326,13.34,0.034,23.6
2020-07-07T09:13:03,42.805,6.029,0.009,0.015,0.004,105.0,107.0,101.0,13.4,1505.4,325.8,-0.7,1.9,2470.326,13.34,0.017,31.0
2020-07-07T09:16:03,42.805,6.029,0.025,0.009,0.019,104.0,106.0,101.0,13.3,1505.4,323.7,-0.7,1.8,2470.332,13.34,0.026,70.2
2020-07-07T09:19:03,42.805,6.029,0.019,-0.005,-0.017,104.0,107.0,101.0,13.4,1505.4,323.4,-0.7,1.8,2470.361,13.34,0.019,104.7
2020-07-07T09:22:03,42.805,6.029,-0.01,0.003,-0.014,104.0,106.0,101.0,13.4,1505.4,323.4,-0.7,1.8,2470.327,13.34,0.01,286.7
2020-07-07T09:25:03,42.805,6.029,-0.001,0.017,0.03,104.0,106.0,101.0,13.3,1505.4,327.5,-0.7,1.9,2470.314,13.34,0.017,356.6
2020-07-07T09:28:03,42.805,6.029,0.01,-0.005,0.026,104.0,105.0,101.0,13.4,1505.4,326.2,-0.7,1.8,2470.329,13.34,0.011,116.6
2020-07-07T09:31:03,42.805,6.029,0.007,0.006,0.005,105.0,105.0,101.0,13.4,1505.4,324.6,-0.7,1.9,2470.315,13.34,0.009,49.4
2020-07-07T09:34:03,42.805,6.029,0.005,0.018,-0.003,103.0,105.0,101.0,13.4,1505.4,325.9,-0.7,1.8,2470.328,13.34,0.018,15.5
2020-07-07T09:37:03,42.805,6.029,0.01,0.013,0.05,104.0,106.0,101.0,13.3,1505.4,323.6,-0.7,1.8,2470.363,13.34,0.016,37.6
2020-07-07T09:40:03,42.805,6.029,0.001,0.035,0.027,105.0,106.0,101.0,13.3,1505.4,325.7,-0.7,1.8,2470.31,13.34,0.035,1.6
2020-07-07T09:43:03,42.805,6.029,0.007,0.015,0.001,104.0,107.0,101.0,13.4,1505.4,323.5,-0.7,1.8,2470.279,13.35,0.016,25.0
2020-07-07T09:46:03,42.805,6.029,0.006,0.028,0.0,106.0,107.0,101.0,13.4,1505.4,324.6,-0.7,1.8,2470.297,13.34,0.028,12.1
2020-07-07T09:49:03,42.805,6.029,-0.016,0.005,-0.033,104.0,106.0,102.0,13.3,1505.4,325.4,-0.7,1.8,2470.329,13.35,0.016,287.4
2020-07-07T09:52:03,42.805,6.029,0.003,0.007,0.007,104.0,105.0,101.0,13.4,1505.4,323.6,-0.7,1.8,2470.275,13.35,0.007,23.2
2020-07-07T09:55:03,42.805,6.029,-0.014,0.023,0.002,103.0,107.0,101.0,13.4,1505.4,328.2,-0.7,1.8,2470.296,13.35,0.026,328.7
2020-07-07T09:58:03,42.805,6.029,0.012,0.01,0.009,105.0,107.0,102.0,13.4,1505.4,326.4,-0.7,1.9,2470.347,13.35,0.015,50.2
2020-07-07T10:04:03,42.805,6.029,-0.001,0.002,-0.018,105.0,107.0,101.0,13.4,1505.3,325.5,-0.8,1.8,2470.321,13.32,0.002,333.4
2020-07-07T10:07:03,42.805,6.029,-0.034,0.009,-0.026,104.0,108.0,102.0,13.3,1505.3,326.2,-0.7,1.9,2470.301,13.33,0.035,284.8
2020-07-07T10:10:03,42.805,6.029,-0.009,0.012,-0.025,104.0,106.0,101.0,13.3,1505.4,326.0,-0.7,1.8,2470.307,13.34,0.015,323.1
2020-07-07T10:13:03,42.805,6.029,-0.015,-0.007,-0.052,105.0,107.0,102.0,13.4,1505.4,324.2,-0.7,1.8,2470.325,13.34,0.016,245.0